Location: Arroyo de Valdeoliva
(40.1604°N, 4.9878°W)
Time: 14:57:18
(UTC+00:00)

Cosmos 1758 Rocket - Pass Details

Date: 11 December 2025
Orbit: 595 x 629 km, 82.5° (Epoch: 16 January)

Event Time Altitude Azimuth Distance (km) Brightness Sun altitude
Rises 17:25:24 0° 350° (N) 2,857 6.8 -6.1°
Reaches altitude 10° 17:27:37 10° 349° (N) 1,946 6.0 -6.5°
Maximum altitude 17:31:54 75° 265° (W) 622 3.8 -7.2°
Drops below altitude 10° 17:36:08 10° 180° (S) 1,923 6.4 -8.0°
Sets 17:38:20 0° 178° (S) 2,819 7.2 -8.4°
